Time,TemperatureF,DewpointF,PressureIn,WindDirection,WindDirectionDegrees,WindSpeedMPH,WindSpeedGustMPH,Humidity,HourlyPrecipIn,Conditions,Clouds,dailyrainin,SoftwareType,DateUTC
2013-10-22 01:22:00,44.0,-99.9,-100.00,ESE,123,1.0,6.0,-999,-99.99,,,-99.99,,2013-10-22 06:22:00,
2013-10-22 01:33:00,44.0,-99.9,-100.00,ESE,123,1.0,6.0,-999,-99.99,,,-99.99,,2013-10-22 06:33:00,
2013-10-22 01:43:00,44.0,-99.9,-100.00,ESE,123,1.0,6.0,-999,-99.99,,,-99.99,,2013-10-22 06:43:00,
2013-10-22 02:50:00,41.0,-99.9,-100.00,WSW,247,2.0,5.0,-999,-99.99,,,-99.99,,2013-10-22 07:50:00,
2013-10-22 03:22:00,44.0,-99.9,-100.00,South,184,3.0,3.0,-999,-99.99,,,-99.99,,2013-10-22 08:22:00,
2013-10-22 03:42:00,41.0,-99.9,-100.00,WSW,247,2.0,5.0,-999,-99.99,,,-99.99,,2013-10-22 08:42:00,
2013-10-22 04:50:00,43.0,-99.9,-100.00,SSE,167,4.0,5.0,-999,-99.99,,,-99.99,,2013-10-22 09:50:00,
2013-10-22 05:43:00,43.0,-99.9,-100.00,SSE,167,4.0,5.0,-999,-99.99,,,-99.99,,2013-10-22 10:43:00,
2013-10-22 07:00:00,40.0,-99.9,-100.00,SW,233,1.0,4.0,-999,-99.99,,,-99.99,,2013-10-22 12:00:00,
2013-10-22 07:42:00,40.0,-99.9,-100.00,South,180,4.0,6.0,-999,-99.99,,,-99.99,,2013-10-22 12:42:00,
2013-10-22 07:52:00,40.0,-99.9,-100.00,SW,233,1.0,4.0,-999,-99.99,,,-99.99,,2013-10-22 12:52:00,
2013-10-22 09:12:00,40.0,-99.9,-100.00,South,189,2.0,2.0,-999,-99.99,,,-99.99,,2013-10-22 14:12:00,
2013-10-22 09:22:00,40.0,-99.9,-100.00,South,189,2.0,2.0,-999,-99.99,,,-99.99,,2013-10-22 14:22:00,
2013-10-22 11:13:00,53.0,-99.9,-100.00,NNE,27,2.0,4.0,-999,-99.99,,,-99.99,,2013-10-22 16:13:00,
2013-10-22 11:23:00,53.0,-99.9,-100.00,NNE,27,2.0,4.0,-999,-99.99,,,-99.99,,2013-10-22 16:23:00,
2013-10-22 11:50:00,58.0,-99.9,-100.00,NE,39,7.0,10.0,-999,-99.99,,,-99.99,,2013-10-22 16:50:00,
2013-10-22 13:50:00,66.0,-99.9,-100.00,ESE,109,4.0,7.0,-999,-99.99,,,-99.99,,2013-10-22 18:50:00,
2013-10-22 14:43:00,66.0,-99.9,-100.00,ESE,109,4.0,7.0,-999,-99.99,,,-99.99,,2013-10-22 19:43:00,
2013-10-22 15:50:00,68.0,-99.9,-100.00,ENE,58,4.0,9.0,-999,-99.99,,,-99.99,,2013-10-22 20:50:00,
2013-10-22 16:44:00,68.0,-99.9,-100.00,ENE,58,4.0,9.0,-999,-99.99,,,-99.99,,2013-10-22 21:44:00,
2013-10-22 17:50:00,69.0,-99.9,-100.00,ENE,62,5.0,5.0,-999,-99.99,,,-99.99,,2013-10-22 22:50:00,
2013-10-22 18:40:00,65.0,-99.9,-100.00,NE,54,7.0,13.0,-999,-99.99,,,-99.99,,2013-10-22 23:40:00,
2013-10-22 18:43:00,69.0,-99.9,-100.00,ENE,62,5.0,5.0,-999,-99.99,,,-99.99,,2013-10-22 23:43:00,
2013-10-22 20:40:00,57.0,-99.9,-100.00,SSE,165,4.0,6.0,-999,-99.99,,,-99.99,,2013-10-23 01:40:00,
2013-10-22 21:22:00,57.0,-99.9,-100.00,SSE,165,4.0,6.0,-999,-99.99,,,-99.99,,2013-10-23 02:22:00,
2013-10-22 21:32:00,57.0,-99.9,-100.00,SSE,165,4.0,6.0,-999,-99.99,,,-99.99,,2013-10-23 02:32:00,
2013-10-22 21:55:00,52.0,-99.9,-100.00,South,185,6.0,8.0,-999,-99.99,,,-99.99,,2013-10-23 02:55:00,
2013-10-22 22:20:00,52.0,-99.9,-100.00,South,186,4.0,6.0,-999,-99.99,,,-99.99,,2013-10-23 03:20:00,
2013-10-22 22:44:00,52.0,-99.9,-100.00,South,185,6.0,8.0,-999,-99.99,,,-99.99,,2013-10-23 03:44:00,
2013-10-22 23:14:00,52.0,-99.9,-100.00,South,186,4.0,6.0,-999,-99.99,,,-99.99,,2013-10-23 04:14:00,